K4GZX-11 Weather Reports


Display with metric or nautical units.
time (UTC)temp
F
wind
direction
speed
MPH
gust
MPH
rain 1hr
in
rain 24hr
in
rain mn
in
humidity
%
barometer
mb
20210419022824 60 148 0.0 0.0 0.00 0.00 0.00 54 1010.5
20210419022229 61 148 0.0 0.0 0.00 0.00 0.00 53 1010.6
20210419021520 61 148 0.0 0.0 0.00 0.00 0.00 53 1010.4
20210419021020 61 148 0.0 0.0 0.00 0.00 0.00 52 1010.4
20210419020500 61 148 0.0 0.0 0.00 0.00 0.00 48 1010.3
20210419020020 62 148 0.0 0.0 0.00 0.00 0.00 48 1010.3
20210419015749 62 148 0.0 0.0 0.00 0.00 0.00 48 1010.2
20210419015023 62 148 0.0 0.0 0.00 0.00 0.00 46 1010.2
20210419014524 62 148 0.0 0.0 0.00 0.00 0.00 45 1010.0
20210419014023 63 148 0.0 0.0 0.00 0.00 0.00 45 1010.1
20210419013512 63 148 0.0 0.0 0.00 0.00 0.00 44 1009.9
20210419013020 63 148 0.0 0.0 0.00 0.00 0.00 44 1009.9
20210419012805 64 148 0.0 0.0 0.00 0.00 0.00 43 1009.9
20210419012200 64 148 0.0 0.0 0.00 0.00 0.00 43 1009.9
20210419011514 64 148 0.0 0.0 0.00 0.00 0.00 43 1009.9
20210419011018 64 148 0.0 0.0 0.00 0.00 0.00 43 1009.8
20210419010534 65 148 0.0 0.0 0.00 0.00 0.00 42 1009.8
20210419010035 65 148 0.0 0.0 0.00 0.00 0.00 42 1009.7
20210419005816 65 148 0.0 0.0 0.00 0.00 0.00 41 1009.7
20210419005226 65 148 0.0 0.0 0.00 0.00 0.00 41 1009.7
20210419004524 66 148 0.0 0.0 0.00 0.00 0.00 41 1009.6
20210419004030 66 148 0.0 0.0 0.00 0.00 0.00 41 1009.5
20210419003514 66 148 0.0 0.0 0.00 0.00 0.00 40 1009.5
20210419003217 67 148 0.0 0.0 0.00 0.00 0.00 41 1009.5
20210419002941 67 148 0.0 0.0 0.00 0.00 0.00 38 1009.4
20210419002345 67 148 0.0 0.0 0.00 0.00 0.00 39 1009.2
20210419001543 68 148 0.0 0.0 0.00 0.00 0.00 38 1009.2
20210419001011 68 148 0.0 0.0 0.00 0.00 0.00 38 1009.1
20210419000526 68 148 0.0 0.0 0.00 0.00 0.00 38 1009.1
20210419000023 69 148 0.0 0.0 0.00 0.00 0.00 36 1009.0
20210418235753 69 148 0.0 0.0 0.00 0.00 0.00 36 1009.0
20210418235230 69 148 0.0 0.0 0.00 0.00 0.00 36 1009.0
20210418234522 69 148 0.0 0.0 0.00 0.00 0.00 35 1008.9
20210418234025 70 148 0.0 0.0 0.00 0.00 0.00 34 1008.9
20210418233520 70 148 0.0 0.0 0.00 0.00 0.00 33 1008.8
20210418233143 70 148 0.0 0.0 0.00 0.00 0.00 32 1008.7
20210418233023 70 148 0.0 0.0 0.00 0.00 0.00 33 1008.7
20210418232629 71 148 0.0 0.0 0.00 0.00 0.00 32 1008.8
20210418231532 71 148 0.0 0.0 0.00 0.00 0.00 31 1008.9
20210418231031 71 148 0.0 0.0 0.00 0.00 0.00 30 1009.0
20210418230518 71 148 0.0 0.0 0.00 0.00 0.00 29 1008.9
20210418230017 71 148 0.0 0.0 0.00 0.00 0.00 30 1008.9
20210418225842 71 148 0.0 0.0 0.00 0.00 0.00 29 1009.0
20210418225204 71 148 0.0 0.0 0.00 0.00 0.00 28 1008.9
20210418224528 72 148 0.0 0.0 0.00 0.00 0.00 28 1008.9
20210418224029 72 113 0.0 0.0 0.00 0.00 0.00 27 1008.9
20210418223514 72 169 0.0 0.0 0.00 0.00 0.00 26 1008.9
20210418223036 72 177 0.0 0.0 0.00 0.00 0.00 27 1008.9
20210418222852 72 177 0.0 0.0 0.00 0.00 0.00 26 1008.9
20210418222245 72 184 0.0 0.0 0.00 0.00 0.00 24 1008.9
20210418221525 73 103 0.0 0.0 0.00 0.00 0.00 26 1009.0
20210418221027 73 223 0.0 0.0 0.00 0.00 0.00 24 1008.9
20210418220511 73 142 0.0 0.0 0.00 0.00 0.00 25 1008.9
20210418220019 73 138 0.0 0.0 0.00 0.00 0.00 25 1009.0
20210418215830 73 149 0.0 0.0 0.00 0.00 0.00 26 1008.9
20210418215240 74 205 0.0 0.0 0.00 0.00 0.00 22 1009.1
20210418214533 74 195 0.0 0.0 0.00 0.00 0.00 23 1009.1
20210418214021 74 196 0.0 0.0 0.00 0.00 0.00 22 1009.1
20210418213512 74 172 0.0 0.0 0.00 0.00 0.00 23 1009.1
20210418213023 74 223 0.0 1.0 0.00 0.00 0.00 22 1009.2
20210418212840 74 188 1.0 1.0 0.00 0.00 0.00 24 1009.2
20210418212335 74 196 0.0 0.0 0.00 0.00 0.00 27 1009.2
20210418211532 74 212 0.0 0.0 0.00 0.00 0.00 28 1009.2
20210418211023 74 201 0.0 2.0 0.00 0.00 0.00 28 1009.4
20210418210528 74 186 2.0 2.0 0.00 0.00 0.00 27 1009.4
20210418210036 75 226 1.0 1.0 0.00 0.00 0.00 27 1009.5
20210418205922 75 184 0.0 0.0 0.00 0.00 0.00 27 1009.5
20210418205351 75 174 0.0 0.0 0.00 0.00 0.00 28 1009.5
20210418204531 75 169 0.0 0.0 0.00 0.00 0.00 27 1009.4
20210418204023 75 191 0.0 0.0 0.00 0.00 0.00 30 1009.5
20210418203512 75 180 0.0 0.0 0.00 0.00 0.00 25 1009.6
20210418203020 75 207 0.0 0.0 0.00 0.00 0.00 28 1009.6
20210418202841 75 207 0.0 0.0 0.00 0.00 0.00 27 1009.7
20210418202319 75 192 0.0 0.0 0.00 0.00 0.00 27 1009.7
20210418201522 75 127 0.0 0.0 0.00 0.00 0.00 27 1009.9
20210418201037 75 211 0.0 3.0 0.00 0.00 0.00 26 1009.9
20210418200529 75 202 3.0 3.0 0.00 0.00 0.00 26 1010.0
20210418200031 75 116 0.0 0.0 0.00 0.00 0.00 25 1010.1
20210418195821 75 203 0.0 0.0 0.00 0.00 0.00 28 1010.1
20210418195137 75 107 0.0 0.0 0.00 0.00 0.00 25 1010.0
20210418194513 75 107 0.0 0.0 0.00 0.00 0.00 29 1010.1
20210418194030 75 223 0.0 0.0 0.00 0.00 0.00 26 1010.3
20210418193514 75 204 0.0 0.0 0.00 0.00 0.00 26 1010.3
20210418193053 75 182 0.0 6.0 0.00 0.00 0.00 28 1010.4
20210418192927 75 207 6.0 6.0 0.00 0.00 0.00 27 1010.4
20210418192434 76 72 0.0 0.0 0.00 0.00 0.00 26 1010.5
20210418191521 76 141 0.0 2.0 0.00 0.00 0.00 26 1010.5
20210418191055 75 204 2.0 2.0 0.00 0.00 0.00 27 1010.5
20210418190518 75 220 0.0 0.0 0.00 0.00 0.00 28 1010.4
20210418190007 75 217 0.0 0.0 0.00 0.00 0.00 30 1010.5
20210418185730 75 217 0.0 0.0 0.00 0.00 0.00 27 1010.5
20210418185117 75 16 0.0 0.0 0.00 0.00 0.00 28 1010.5
20210418184514 74 200 0.0 4.0 0.00 0.00 0.00 28 1010.5
20210418184026 74 215 4.0 4.0 0.00 0.00 0.00 29 1010.5
20210418183521 74 140 0.0 0.0 0.00 0.00 0.00 29 1010.5
20210418183035 74 171 0.0 0.0 0.00 0.00 0.00 32 1010.6
20210418182754 73 126 0.0 0.0 0.00 0.00 0.00 32 1010.6
20210418182207 73 174 0.0 0.0 0.00 0.00 0.00 30 1010.6
20210418181523 72 178 0.0 1.0 0.00 0.00 0.00 29 1010.7
20210418181044 72 179 1.0 1.0 0.00 0.00 0.00 30 1010.9
20210418180518 72 196 0.0 0.0 0.00 0.00 0.00 32 1010.9
20210418180021 71 326 0.0 0.0 0.00 0.00 0.00 31 1010.9
20210418175801 71 186 0.0 0.0 0.00 0.00 0.00 32 1010.9
20210418175029 71 204 0.0 0.0 0.00 0.00 0.00 35 1011.1
20210418174512 70 193 0.0 0.0 0.00 0.00 0.00 34 1011.2
20210418174029 70 220 0.0 2.0 0.00 0.00 0.00 32 1011.2
20210418173511 70 179 2.0 2.0 0.00 0.00 0.00 35 1011.3
20210418173059 70 184 0.0 3.0 0.00 0.00 0.00 35 1011.3
20210418172918 69 348 3.0 3.0 0.00 0.00 0.00 35 1011.4
20210418172358 69 142 0.0 0.0 0.00 0.00 0.00 32 1011.4
20210418171548 69 172 0.0 0.0 0.00 0.00 0.00 31 1011.5
20210418171036 69 153 0.0 0.0 0.00 0.00 0.00 33 1011.5
20210418170523 68 202 0.0 0.0 0.00 0.00 0.00 33 1011.7
20210418170020 68 360 0.0 0.0 0.00 0.00 0.00 35 1011.8
20210418165729 68 360 0.0 0.0 0.00 0.00 0.00 36 1011.8
20210418165026 67 142 0.0 0.0 0.00 0.00 0.00 35 1012.0
20210418164524 67 142 0.0 0.0 0.00 0.00 0.00 35 1012.2
20210418164025 67 198 0.0 0.0 0.00 0.00 0.00 35 1012.2
20210418163516 67 213 0.0 0.0 0.00 0.00 0.00 35 1012.3
20210418163141 67 166 0.0 7.0 0.00 0.00 0.00 36 1012.4
20210418162927 67 205 7.0 7.0 0.00 0.00 0.00 36 1012.4
20210418162529 67 317 0.0 0.0 0.00 0.00 0.00 38 1012.4
20210418161519 67 317 0.0 0.0 0.00 0.00 0.00 39 1012.5
20210418161033 66 202 0.0 0.0 0.00 0.00 0.00 39 1012.4
20210418160516 66 213 0.0 0.0 0.00 0.00 0.00 41 1012.5
20210418160040 66 218 0.0 0.0 0.00 0.00 0.00 42 1012.7
20210418155801 66 210 0.0 0.0 0.00 0.00 0.00 41 1012.9
20210418155152 65 206 0.0 0.0 0.00 0.00 0.00 42 1012.9
20210418154511 65 206 0.0 0.0 0.00 0.00 0.00 43 1012.9
20210418154024 65 345 0.0 0.0 0.00 0.00 0.00 43 1012.8
20210418153509 64 345 0.0 0.0 0.00 0.00 0.00 44 1012.9
20210418153022 64 345 0.0 0.0 0.00 0.00 0.00 44 1012.8
20210418152708 64 345 0.0 0.0 0.00 0.00 0.00 45 1012.8
20210418152137 63 342 0.0 0.0 0.00 0.00 0.00 46 1013.0
20210418151513 62 192 0.0 0.0 0.00 0.00 0.00 50 1013.1
20210418151023 62 192 0.0 0.0 0.00 0.00 0.00 50 1013.1
20210418150512 61 192 0.0 0.0 0.00 0.00 0.00 53 1013.0
20210418150039 60 192 0.0 0.0 0.00 0.00 0.00 55 1012.9
20210418145739 59 163 0.0 0.0 0.00 0.00 0.00 57 1012.8
20210418145143 59 163 0.0 0.0 0.00 0.00 0.00 59 1012.8
20210418144509 58 163 0.0 0.0 0.00 0.00 0.00 59 1012.9
20210418144029 58 163 0.0 0.0 0.00 0.00 0.00 63 1012.8
20210418143508 57 163 0.0 0.0 0.00 0.00 0.00 62 1013.0
20210418143029 56 163 0.0 0.0 0.00 0.00 0.00 64 1012.9
20210418142821 56 163 0.0 0.0 0.00 0.00 0.00 68 1012.8
20210418142254 55 163 0.0 0.0 0.00 0.00 0.00 70 1012.9
20210418141521 55 163 0.0 0.0 0.00 0.00 0.00 73 1012.7
20210418141033 54 163 0.0 0.0 0.00 0.00 0.00 75 1012.7
20210418140513 53 163 0.0 0.0 0.00 0.00 0.00 75 1012.8
20210418140045 53 163 0.0 0.0 0.00 0.00 0.00 77 1012.9
20210418135849 52 163 0.0 0.0 0.00 0.00 0.00 79 1012.9
20210418135419 52 163 0.0 0.0 0.00 0.00 0.00 81 1013.0
20210418134513 51 163 0.0 0.0 0.00 0.00 0.00 82 1013.0
20210418134026 50 163 0.0 0.0 0.00 0.00 0.00 83 1013.1
20210418133513 50 163 0.0 0.0 0.00 0.00 0.00 84 1013.1
20210418133023 49 163 0.0 0.0 0.00 0.00 0.00 84 1013.0
20210418132725 49 163 0.0 0.0 0.00 0.00 0.00 85 1012.9
20210418132051 49 163 0.0 0.0 0.00 0.00 0.00 85 1012.9
20210418131520 48 163 0.0 0.0 0.00 0.00 0.00 85 1013.1
20210418131037 48 163 0.0 0.0 0.00 0.00 0.00 85 1013.0
20210418130516 47 163 0.0 0.0 0.00 0.00 0.00 85 1013.0
20210418130228 47 163 0.0 0.0 0.00 0.00 0.00 85 1013.0
20210418130053 47 163 0.0 0.0 0.00 0.00 0.00 85 1012.9
20210418125747 47 163 0.0 0.0 0.00 0.00 0.00 85 1012.8
20210418124521 47 163 0.0 0.0 0.00 0.00 0.00 85 1012.9
20210418124104 46 163 0.0 0.0 0.00 0.00 0.00 84 1012.8
20210418123856 46 163 0.0 0.0 0.00 0.00 0.00 84 1012.8
20210418123446 46 163 0.0 0.0 0.00 0.00 0.00 84 1012.9
20210418123119 46 163 0.0 0.0 0.00 0.00 0.00 83 1012.9
20210418122401 46 163 0.0 0.0 0.00 0.00 0.00 83 1012.8
20210418121520 45 163 0.0 0.0 0.00 0.00 0.00 82 1012.7
20210418121104 45 163 0.0 0.0 0.00 0.00 0.00 82 1012.6
20210418120542 45 163 0.0 0.0 0.00 0.00 0.00 81 1012.6
20210418120222 45 163 0.0 0.0 0.00 0.00 0.00 81 1012.6
20210418115931 45 163 0.0 0.0 0.00 0.00 0.00 81 1012.6
20210418115349 45 163 0.0 0.0 0.00 0.00 0.00 81 1012.5
20210418114510 45 163 0.0 0.0 0.00 0.00 0.00 81 1012.4
20210418114022 45 163 0.0 0.0 0.00 0.00 0.00 81 1012.3
20210418113522 45 163 0.0 0.0 0.00 0.00 0.00 80 1012.4
20210418113058 45 163 0.0 0.0 0.00 0.00 0.00 80 1012.5
20210418112938 46 163 0.0 0.0 0.00 0.00 0.00 80 1012.4
20210418112332 46 163 0.0 0.0 0.00 0.00 0.00 80 1012.3
20210418111518 46 163 0.0 0.0 0.00 0.00 0.00 80 1012.3
20210418111034 46 163 0.0 0.0 0.00 0.00 0.00 79 1012.2
20210418110520 46 163 0.0 0.0 0.00 0.00 0.00 79 1011.8
20210418110125 46 163 0.0 0.0 0.00 0.00 0.00 79 1011.7
20210418105842 46 163 0.0 0.0 0.00 0.00 0.00 79 1011.8
20210418105307 46 163 0.0 0.0 0.00 0.00 0.00 79 1011.9
20210418104511 47 163 0.0 0.0 0.00 0.00 0.00 79 1011.7
20210418104022 47 163 0.0 0.0 0.00 0.00 0.00 79 1011.7
20210418103512 47 163 0.0 0.0 0.00 0.00 0.00 78 1011.7
20210418103027 47 163 0.0 0.0 0.00 0.00 0.00 78 1011.7
20210418102841 47 163 0.0 0.0 0.00 0.00 0.00 79 1011.5
20210418102235 47 163 0.0 0.0 0.00 0.00 0.00 79 1011.3
20210418101530 47 163 0.0 0.0 0.00 0.00 0.00 79 1011.3
20210418101037 47 163 0.0 0.0 0.00 0.00 0.00 79 1011.4
20210418100513 47 163 0.0 0.0 0.00 0.00 0.00 79 1011.3
20210418100036 48 163 0.0 0.0 0.00 0.00 0.00 78 1011.2
20210418095909 48 163 0.0 0.0 0.00 0.00 0.00 78 1011.3
20210418095447 48 163 0.0 0.0 0.00 0.00 0.00 78 1011.3
20210418094510 48 163 0.0 0.0 0.00 0.00 0.00 78 1011.3
20210418094025 48 163 0.0 0.0 0.00 0.00 0.00 78 1011.3
20210418093506 48 163 0.0 0.0 0.00 0.00 0.00 78 1011.2
20210418093038 48 163 0.0 0.0 0.00 0.00 0.00 78 1011.3
20210418092729 48 163 0.0 0.0 0.00 0.00 0.00 77 1011.4
20210418092137 48 163 0.0 0.0 0.00 0.00 0.00 77 1011.3
20210418091524 48 163 0.0 0.0 0.00 0.00 0.00 78 1011.3
20210418091020 48 163 0.0 0.0 0.00 0.00 0.00 77 1011.3
20210418090519 48 163 0.0 0.0 0.00 0.00 0.00 77 1011.4
20210418090059 48 163 0.0 0.0 0.00 0.00 0.00 77 1011.3
20210418085833 49 163 0.0 0.0 0.00 0.00 0.00 77 1011.2
20210418085228 49 163 0.0 0.0 0.00 0.00 0.00 77 1011.3
20210418084516 49 163 0.0 0.0 0.00 0.00 0.00 76 1011.1
20210418084019 49 163 0.0 0.0 0.00 0.00 0.00 75 1011.2
20210418083509 49 163 0.0 0.0 0.00 0.00 0.00 75 1011.2
20210418083029 49 163 0.0 0.0 0.00 0.00 0.00 75 1011.2
20210418082744 49 163 0.0 0.0 0.00 0.00 0.00 75 1011.3
20210418082040 50 163 0.0 0.0 0.00 0.00 0.00 75 1011.2
20210418081523 50 163 0.0 0.0 0.00 0.00 0.00 75 1011.2
20210418081051 50 163 0.0 0.0 0.00 0.00 0.00 75 1011.2
20210418080519 50 163 0.0 0.0 0.00 0.00 0.00 74 1011.1
20210418080144 50 163 0.0 0.0 0.00 0.00 0.00 74 1011.1
20210418080034 50 163 0.0 0.0 0.00 0.00 0.00 74 1011.1
20210418075313 50 163 0.0 0.0 0.00 0.00 0.00 73 1011.1
20210418074513 51 163 0.0 0.0 0.00 0.00 0.00 73 1011.2
20210418074021 51 163 0.0 0.0 0.00 0.00 0.00 72 1011.2
20210418073512 51 163 0.0 0.0 0.00 0.00 0.00 73 1011.2
20210418073033 51 163 0.0 0.0 0.00 0.00 0.00 72 1011.1
20210418072719 51 163 0.0 0.0 0.00 0.00 0.00 72 1011.1
20210418072112 51 163 0.0 0.0 0.00 0.00 0.00 73 1011.0
20210418071525 51 163 0.0 0.0 0.00 0.00 0.00 73 1010.9
20210418071037 51 163 0.0 0.0 0.00 0.00 0.00 72 1010.8
20210418070517 52 163 0.0 0.0 0.00 0.00 0.00 73 1010.9
20210418070029 52 163 0.0 0.0 0.00 0.00 0.00 73 1010.8
20210418065750 52 163 0.0 0.0 0.00 0.00 0.00 73 1010.9
20210418065238 52 163 0.0 0.0 0.00 0.00 0.00 73 1010.9
20210418064504 52 163 0.0 0.0 0.00 0.00 0.00 72 1010.9
20210418064020 52 163 0.0 0.0 0.00 0.00 0.00 71 1010.9
20210418063510 52 163 0.0 0.0 0.00 0.00 0.00 71 1010.9
20210418063023 52 163 0.0 0.0 0.00 0.00 0.00 71 1011.0
20210418062742 52 163 0.0 0.0 0.00 0.00 0.00 71 1010.8
20210418062119 52 163 0.0 0.0 0.00 0.00 0.00 72 1010.8
20210418061524 52 163 0.0 0.0 0.00 0.00 0.00 72 1010.8
20210418061026 52 163 0.0 0.0 0.00 0.00 0.00 72 1010.8
20210418060513 52 163 0.0 0.0 0.00 0.00 0.00 71 1011.0
20210418060128 53 163 0.0 0.0 0.00 0.00 0.00 71 1010.9
20210418055911 53 163 0.0 0.0 0.00 0.00 0.00 71 1011.1
20210418055230 53 163 0.0 0.0 0.00 0.00 0.00 71 1011.1
20210418054527 53 163 0.0 0.0 0.00 0.00 0.00 70 1010.9
20210418054026 53 163 0.0 0.0 0.00 0.00 0.00 71 1010.9
20210418053516 53 163 0.0 0.0 0.00 0.00 0.00 71 1010.9
20210418053050 53 163 0.0 0.0 0.00 0.00 0.00 70 1010.8
20210418052848 53 163 0.0 0.0 0.00 0.00 0.00 70 1010.8
20210418052259 53 163 0.0 0.0 0.00 0.00 0.00 71 1010.9
20210418051517 53 163 0.0 0.0 0.00 0.00 0.00 71 1010.9
20210418051023 53 163 0.0 0.0 0.00 0.00 0.00 71 1010.9
20210418050527 54 163 0.0 0.0 0.00 0.00 0.00 71 1011.0
20210418050114 54 163 0.0 0.0 0.00 0.00 0.00 71 1010.8
20210418045818 54 163 0.0 0.0 0.00 0.00 0.00 71 1010.8
20210418045154 54 163 0.0 0.0 0.00 0.00 0.00 70 1010.9
20210418044512 54 163 0.0 0.0 0.00 0.00 0.00 70 1011.0
20210418044021 54 163 0.0 0.0 0.00 0.00 0.00 70 1011.0
20210418043027 54 163 0.0 0.0 0.00 0.00 0.00 70 1010.8
20210418042842 54 163 0.0 0.0 0.00 0.00 0.00 70 1010.9
20210418042228 54 163 0.0 0.0 0.00 0.00 0.00 69 1010.9
20210418041514 54 163 0.0 0.0 0.00 0.00 0.00 69 1010.8
20210418041029 55 163 0.0 0.0 0.00 0.00 0.00 69 1010.8
20210418040523 55 163 0.0 0.0 0.00 0.00 0.00 68 1010.8
20210418040036 55 163 0.0 0.0 0.00 0.00 0.00 67 1010.6
20210418035810 55 163 0.0 0.0 0.00 0.00 0.00 67 1010.6
20210418035255 55 163 0.0 0.0 0.00 0.00 0.00 67 1010.6
20210418034513 56 163 0.0 0.0 0.00 0.00 0.00 66 1010.6
20210418034034 56 163 0.0 0.0 0.00 0.00 0.00 65 1010.6
20210418033522 56 163 0.0 0.0 0.00 0.00 0.00 64 1010.6
20210418033045 56 163 0.0 0.0 0.00 0.00 0.00 64 1010.6
20210418032914 56 163 0.0 0.0 0.00 0.00 0.00 63 1010.6
20210418032356 56 163 0.0 0.0 0.00 0.00 0.00 62 1010.3
20210418031512 56 163 0.0 0.0 0.00 0.00 0.00 62 1010.4
20210418031025 57 163 0.0 0.0 0.00 0.00 0.00 62 1010.3
20210418030510 57 163 0.0 0.0 0.00 0.00 0.00 63 1010.1
20210418030238 57 163 0.0 0.0 0.00 0.00 0.00 63 1010.1
20210418025917 57 163 0.0 0.0 0.00 0.00 0.00 62 1010.1
20210418025359 57 163 0.0 0.0 0.00 0.00 0.00 62 1010.2
20210418024545 58 163 0.0 0.0 0.00 0.00 0.00 62 1010.1
20210418024042 58 163 0.0 0.0 0.00 0.00 0.00 61 1010.1
20210418023525 58 163 0.0 0.0 0.00 0.00 0.00 61 1010.1
20210418023028 58 163 0.0 0.0 0.00 0.00 0.00 59 1010.1